• In Czech Republic
  • List of Countries
  • For 7 days
  • Water Temperature
  • Satellite Maps
  • Weather Map
  • Weather Widgets
  • user-avatar
    Login

    Hourly Weather Paperino

    Today, 24 May, Thursday

    Time Temperature Precipitation Wind Pressure Humidity
    00:00 +12°C° 0 mm 2 mps 753 mmHg 94%
    01:00 +12°C° 0 mm 2 mps 753 mmHg 95%
    02:00 +11°C° 0 mm 1 mps 753 mmHg 96%
    03:00 +10°C° 0 mm 2 mps 753 mmHg 96%
    04:00 +10°C° 0 mm 2 mps 753 mmHg 96%
    05:00 +10°C° 0 mm 2 mps 753 mmHg 97%
    06:00 +13°C° 0 mm 2 mps 753 mmHg 92%
    07:00 +14°C° 0 mm 2 mps 753 mmHg 88%
    08:00 +16°C° 0 mm 3 mps 754 mmHg 82%
    09:00 +17°C° 0.1 mm 3 mps 754 mmHg 75%
    10:00 +19°C° 0.1 mm 3 mps 753 mmHg 69%
    11:00 +20°C° 0.1 mm 4 mps 753 mmHg 62%
    12:00 +20°C° 0.6 mm 4 mps 753 mmHg 63%
    13:00 +21°C° 0.6 mm 4 mps 753 mmHg 64%
    14:00 +21°C° 0.6 mm 4 mps 753 mmHg 64%
    15:00 +21°C° 0.4 mm 4 mps 753 mmHg 67%
    16:00 +20°C° 0.4 mm 4 mps 753 mmHg 69%
    17:00 +20°C° 0.4 mm 4 mps 752 mmHg 71%
    18:00 +19°C° 0.2 mm 4 mps 752 mmHg 76%
    19:00 +17°C° 0.2 mm 3 mps 752 mmHg 82%
    20:00 +16°C° 0.2 mm 2 mps 752 mmHg 88%
    21:00 +14°C° 0 mm 3 mps 753 mmHg 89%
    22:00 +14°C° 0 mm 3 mps 753 mmHg 91%
    23:00 +13°C° 0 mm 3 mps 753 mmHg 92%

    Tomorrow, 25 May, Friday

    Time Temperature Precipitation Wind Pressure Humidity
    00:00 +13°C° 0 mm 3 mps 753 mmHg 93%
    01:00 +12°C° 0 mm 3 mps 753 mmHg 94%
    02:00 +12°C° 0 mm 3 mps 754 mmHg 94%
    03:00 +12°C° 0 mm 3 mps 754 mmHg 94%
    04:00 +12°C° 0 mm 3 mps 754 mmHg 94%
    05:00 +12°C° 0 mm 3 mps 754 mmHg 94%
    06:00 +14°C° 0 mm 3 mps 755 mmHg 89%
    07:00 +16°C° 0 mm 3 mps 755 mmHg 84%
    08:00 +18°C° 0 mm 3 mps 755 mmHg 79%
    09:00 +20°C° 0 mm 4 mps 756 mmHg 72%
    10:00 +21°C° 0 mm 4 mps 756 mmHg 65%
    11:00 +23°C° 0 mm 4 mps 756 mmHg 58%
    12:00 +23°C° 0 mm 4 mps 756 mmHg 56%
    13:00 +25°C° 0 mm 4 mps 756 mmHg 55%
    14:00 +25°C° 0 mm 4 mps 756 mmHg 53%
    15:00 +25°C° 0 mm 4 mps 756 mmHg 54%
    16:00 +23°C° 0 mm 4 mps 756 mmHg 55%
    17:00 +23°C° 0 mm 4 mps 756 mmHg 55%
    18:00 +21°C° 0 mm 3 mps 756 mmHg 61%
    19:00 +19°C° 0 mm 3 mps 757 mmHg 67%
    20:00 +17°C° 0 mm 3 mps 757 mmHg 72%
    21:00 +16°C° 0 mm 3 mps 757 mmHg 73%
    22:00 +14°C° 0 mm 3 mps 758 mmHg 74%
    23:00 +13°C° 0 mm 3 mps 758 mmHg 75%

    Day after tomorrow, 26 May, Saturday

    Time Temperature Precipitation Wind Pressure Humidity
    00:00 +12°C° 0 mm 3 mps 758 mmHg 76%
    01:00 +11°C° 0 mm 3 mps 759 mmHg 77%
    02:00 +10°C° 0 mm 3 mps 759 mmHg 77%
    03:00 +10°C° 0 mm 3 mps 759 mmHg 79%
    04:00 +10°C° 0 mm 2 mps 759 mmHg 80%
    05:00 +10°C° 0 mm 2 mps 760 mmHg 81%
    06:00 +12°C° 0 mm 3 mps 760 mmHg 75%
    07:00 +14°C° 0 mm 3 mps 760 mmHg 68%
    08:00 +15°C° 0 mm 4 mps 760 mmHg 62%
    09:00 +18°C° 0 mm 4 mps 760 mmHg 58%
    10:00 +19°C° 0 mm 4 mps 760 mmHg 54%
    11:00 +20°C° 0 mm 4 mps 760 mmHg 50%
    12:00 +20°C° 0 mm 4 mps 760 mmHg 49%
    13:00 +21°C° 0 mm 4 mps 760 mmHg 49%
    14:00 +21°C° 0 mm 4 mps 759 mmHg 48%
    15:00 +21°C° 0 mm 4 mps 759 mmHg 50%
    16:00 +21°C° 0 mm 4 mps 759 mmHg 53%
    17:00 +21°C° 0 mm 4 mps 758 mmHg 55%
    18:00 +19°C° 0 mm 3 mps 758 mmHg 62%
    19:00 +17°C° 0 mm 3 mps 758 mmHg 69%
    20:00 +16°C° 0 mm 2 mps 758 mmHg 77%
    21:00 +15°C° 0 mm 2 mps 758 mmHg 79%
    22:00 +14°C° 0 mm 2 mps 759 mmHg 82%
    23:00 +13°C° 0 mm 2 mps 759 mmHg 84%

    27 May, Sunday

    Time Temperature Precipitation Wind Pressure Humidity
    00:00 +12°C° 0 mm 2 mps 759 mmHg 85%
    01:00 +10°C° 0 mm 2 mps 759 mmHg 86%
    02:00 +10°C° 0 mm 2 mps 759 mmHg 87%
    03:00 +10°C° 0 mm 2 mps 759 mmHg 87%
    04:00 +10°C° 0 mm 2 mps 759 mmHg 87%
    05:00 +10°C° 0 mm 2 mps 759 mmHg 87%
    06:00 +13°C° 0 mm 2 mps 759 mmHg 80%
    07:00 +15°C° 0 mm 2 mps 759 mmHg 73%
    08:00 +17°C° 0 mm 2 mps 759 mmHg 66%
    09:00 +18°C° 0 mm 2 mps 758 mmHg 61%
    10:00 +19°C° 0 mm 2 mps 758 mmHg 55%
    11:00 +20°C° 0 mm 2 mps 758 mmHg 50%
    12:00 +21°C° 0 mm 2 mps 758 mmHg 48%
    13:00 +21°C° 0 mm 2 mps 758 mmHg 47%
    14:00 +23°C° 0 mm 2 mps 757 mmHg 45%
    15:00 +23°C° 0 mm 2 mps 757 mmHg 46%
    16:00 +23°C° 0 mm 2 mps 757 mmHg 48%
    17:00 +23°C° 0 mm 1 mps 757 mmHg 49%
    18:00 +21°C° 0 mm 1 mps 757 mmHg 57%
    19:00 +19°C° 0 mm 1 mps 757 mmHg 64%
    20:00 +16°C° 0 mm 1 mps 757 mmHg 72%
    21:00 +15°C° 0 mm 1 mps 757 mmHg 75%
    22:00 +14°C° 0 mm 1 mps 757 mmHg 78%
    23:00 +13°C° 0 mm 1 mps 757 mmHg 81%

    28 May, Monday

    Time Temperature Precipitation Wind Pressure Humidity
    00:00 +13°C° 0 mm 1 mps 758 mmHg 82%
    01:00 +12°C° 0 mm 1 mps 758 mmHg 83%
    02:00 +11°C° 0 mm 0 mps 758 mmHg 84%
    03:00 +11°C° 0 mm 0 mps 758 mmHg 84%
    04:00 +11°C° 0 mm 0 mps 758 mmHg 83%
    05:00 +12°C° 0 mm 0 mps 759 mmHg 83%
    06:00 +15°C° 0 mm 1 mps 759 mmHg 76%
    07:00 +18°C° 0 mm 1 mps 759 mmHg 70%
    08:00 +20°C° 0 mm 1 mps 759 mmHg 63%
    09:00 +21°C° 0 mm 1 mps 759 mmHg 59%
    10:00 +23°C° 0 mm 2 mps 760 mmHg 54%
    11:00 +24°C° 0 mm 2 mps 760 mmHg 50%
    12:00 +25°C° 0 mm 2 mps 760 mmHg 49%
    13:00 +25°C° 0 mm 2 mps 760 mmHg 49%
    14:00 +26°C° 0 mm 2 mps 759 mmHg 48%
    15:00 +26°C° 0 mm 2 mps 759 mmHg 49%
    16:00 +25°C° 0 mm 2 mps 759 mmHg 50%
    17:00 +25°C° 0 mm 2 mps 759 mmHg 50%
    18:00 +23°C° 0 mm 2 mps 759 mmHg 57%
    19:00 +20°C° 0 mm 2 mps 759 mmHg 63%
    20:00 +19°C° 0 mm 2 mps 759 mmHg 69%
    21:00 +17°C° 0 mm 2 mps 759 mmHg 71%
    22:00 +16°C° 0 mm 2 mps 760 mmHg 72%
    23:00 +15°C° 0 mm 2 mps 760 mmHg 74%

    29 May, Tuesday

    Time Temperature Precipitation Wind Pressure Humidity
    00:00 +14°C° 0 mm 2 mps 760 mmHg 76%
    01:00 +14°C° 0 mm 2 mps 760 mmHg 78%
    02:00 +13°C° 0 mm 2 mps 760 mmHg 81%
    03:00 +13°C° 0 mm 2 mps 761 mmHg 81%
    04:00 +13°C° 0 mm 2 mps 761 mmHg 81%
    05:00 +13°C° 0 mm 2 mps 761 mmHg 81%
    06:00 +15°C° 0 mm 2 mps 761 mmHg 75%
    07:00 +17°C° 0 mm 2 mps 761 mmHg 69%
    08:00 +19°C° 0 mm 2 mps 761 mmHg 63%
    09:00 +21°C° 0 mm 2 mps 761 mmHg 58%
    10:00 +23°C° 0 mm 2 mps 761 mmHg 54%
    11:00 +25°C° 0 mm 2 mps 761 mmHg 49%
    12:00 +25°C° 0 mm 2 mps 760 mmHg 47%
    13:00 +26°C° 0 mm 2 mps 760 mmHg 45%
    14:00 +26°C° 0 mm 2 mps 760 mmHg 43%
    15:00 +26°C° 0 mm 2 mps 759 mmHg 45%
    16:00 +26°C° 0 mm 2 mps 759 mmHg 47%
    17:00 +26°C° 0 mm 2 mps 758 mmHg 49%
    18:00 +24°C° 0 mm 2 mps 758 mmHg 58%
    19:00 +21°C° 0 mm 2 mps 758 mmHg 66%
    20:00 +19°C° 0 mm 2 mps 758 mmHg 74%
    21:00 +18°C° 0 mm 2 mps 758 mmHg 75%
    22:00 +17°C° 0 mm 2 mps 757 mmHg 77%
    23:00 +15°C° 0 mm 2 mps 757 mmHg 79%
    Show more